This is the latest recevied weather packets stored in our database for station/object BG4IKR-13. If no packets are shown the sender has not sent any weather packets the latest 10 day(s).
| Time | Temp. | Humidity | Pressure | Rain* | Wind** | Luminosity | Snow |
|---|---|---|---|---|---|---|---|
| 1777438578 | 18.89° C | 35% | 1017.7 hPa | - | - | - | - |
| 1777437547 | 18.89° C | 37% | 1017.9 hPa | - | - | - | - |
| 1777436520 | 18.89° C | 38% | 1018.2 hPa | - | - | - | - |
| 1777435421 | 18.89° C | 38% | 1018.4 hPa | - | - | - | - |
| 1777434395 | 18.89° C | 40% | 1018.7 hPa | - | - | - | - |
| 1777433370 | 18.33° C | 40% | 1019 hPa | - | - | - | - |
| 1777432349 | 18.33° C | 42% | 1019.2 hPa | - | - | - | - |
| 1777430292 | 18.33° C | 44% | 1019.8 hPa | - | - | - | - |
| 1777423030 | 18.33° C | 47% | 1020.3 hPa | - | - | - | - |
| 1777422010 | 18.33° C | 47% | 1020.3 hPa | - | - | - | - |
| 1777414840 | 17.78° C | 48% | 1020.1 hPa | - | - | - | - |
| 1777413822 | 17.78° C | 48% | 1020 hPa | - | - | - | - |
| 1777412803 | 17.78° C | 48% | 1019.8 hPa | - | - | - | - |
| 1777410760 | 17.78° C | 48% | 1019.4 hPa | - | - | - | - |
| 1777409739 | 17.78° C | 48% | 1019.3 hPa | - | - | - | - |
| 1777407696 | 17.78° C | 48% | 1019.3 hPa | - | - | - | - |
| 1777402567 | 18.33° C | 48% | 1019.3 hPa | - | - | - | - |
| 1777399471 | 18.33° C | 47% | 1019.6 hPa | - | - | - | - |
| 1777397396 | 18.33° C | 46% | 1019.7 hPa | - | - | - | - |
| 1777395346 | 18.89° C | 45% | 1020.1 hPa | - | - | - | - |
| 1777389711 | 18.89° C | 42% | 1020.1 hPa | - | - | - | - |
| 1777388367 | 18.89° C | 43% | 1020 hPa | - | - | - | - |
| 1777383960 | 18.89° C | 42% | 1019.9 hPa | - | - | - | - |
| 1777382477 | 18.89° C | 43% | 1019.8 hPa | - | - | - | - |
| 1777381433 | 18.89° C | 42% | 1019.7 hPa | - | - | - | - |
* Rain since midnight (hover to see other rain measurements)
** Current wind speed in m/s (hover to see current wind gust speed)